Location: Arrington
(35.8681°N, 86.7092°W)
Time: 06:28:20
(UTC+00:00)

CZ-3B R/B - Pass Details

Date: 23 November 2019
Orbit: 168 x 9899 km, 25.7° (Epoch: 05 December)

Event Time Altitude Azimuth Distance (km) Brightness Sun altitude
Exits shadow 10:56:19 10° 209° (SSW) 1,821 4.1 -19.0°
Reaches altitude 10° 10:56:25 10° 208° (SSW) 1,816 4.1 -19.0°
Maximum altitude 10:58:47 15° 172° (S) 2,073 4.8 -18.5°
Drops below altitude 10° 11:02:42 10° 142° (SE) 3,363 6.3 -17.7°
Sets 11:10:01 0° 124° (SE) 6,167 8.3 -16.3°
